Hourly Data Report for July 06, 2017

PITT MEADOWS CS
BRITISH COLUMBIA

49°12'29.964" N
122°41'24.076" W
5.00 m
1106178
71775
WMM

Download Data

Hourly Data (July 2017)
Hourly Data Report for July 6, 2017
TIME
LST
Temp Definition
°C
Dew Point Definition
°C
Rel Hum Definition
%
Precip. Amount Definition
mm

Wind Dir Definition
10's deg

Wind Spd Definition
km/h
Visibility Definition
km
Stn Press Definition
kPa
Hmdx Definition


Wind Chill Definition


Weather Definition


00:00 16.3 12.0 76 0.0 13 3   101.73     LegendNANA
01:00 15.6 12.2 81 0.0 7 2   101.78     LegendNANA
02:00 14.5 12.3 86 0.0   0   101.80     LegendNANA
03:00 13.9 12.4 91 0.0   0   101.84     LegendNANA
04:00 13.2 11.7 91 0.0 13 2   101.89     LegendNANA
05:00 14.0 12.0 88 0.0 9 3   101.95     LegendNANA
06:00 16.5 12.0 74 0.0 8 3   102.00     LegendNANA
07:00 17.5 10.4 63 0.0 9 1   102.04     LegendNANA
08:00 18.9 10.6 58 0.0 2 3   102.05     LegendNANA
09:00 21.9 9.9 46 0.0 14 5   102.05     LegendNANA
10:00 23.7 8.9 39 0.0 11 3   102.00     LegendNANA
11:00 24.9 8.5 35 0.0 26 4   101.94 26   LegendNANA
12:00 27.0 11.1 37 0.0 17 8   101.90 29   LegendNANA
13:00 27.5 11.8 38 0.0 19 8   101.87 30   LegendNANA
14:00 27.9 11.4 36 0.0 19 8   101.84 30   LegendNANA
15:00 28.9 11.1 33 0.0 19 7   101.79 31   LegendNANA
16:00 29.2 12.0 35 0.0 19 8   101.72 31   LegendNANA
17:00 28.7 10.6 32 0.0 17 8   101.65 30   LegendNANA
18:00 27.6 10.7 35 0.0 17 8   101.62 29   LegendNANA
19:00 25.9 9.9 36 0.0 19 6   101.61 27   LegendNANA
20:00 23.2 12.4 51 0.0 20 5   101.61 26   LegendNANA
21:00 21.2 12.2 57 0.0 15 4   101.65     LegendNANA
22:00 19.4 12.5 64 0.0   0   101.67     LegendNANA
23:00 17.4 12.4 73 0.0 13 3   101.68     LegendNANA

Notes on Data Quality.

Legend

  • E = Estimated
  • M = Missing
  • NA = Not Available*
  • [empty] = Indicates an unobserved value
Date modified: